User: anonymous   Login
Location: Unspecified
(0.0000°N, 0.0000°E)
Time: 18:04:38
(UTC+00:00)
Language:

STARLINK-34156 - Orbit

View from above orbital plane
View from above orbital plane
View from above satellite
View from above satellite

Ground track
Ground track

The orbit is defined by the following mean orbital elements,

1 64108U          26145.09421698 +.00000000 +00000-0 +39493-3 0 00000
2 64108  53.1602  31.6373 0001088  79.6853 280.4271 15.31715353    04
Epoch (UTC): 25 May 2026 02:15:40
Eccentricity: 0.0001088
inclination: 53.1602°
perigee height: 470 km
apogee height: 471 km
right ascension of ascending node: 31.6373°
argument of perigee: 79.6853°
revolutions per day: 15.31715353
mean anomaly at epoch: 280.4271°

The dashed part of the orbit path shows where the satellite is in the earth's shadow,  

DLR